Lid_Strength_Index
10 10 9 9 9 9 9 8 10 9 10 7 7 7 6 6 6 6 6 5 5 4 4 3 3 2 2 1 1 1 1 1 1 1 0 0 0 0 0 0 0 -0 0 -0
11 10 10 10 8 8 9 9 9 8 9 6 6 6 7 6 6 6 6 5 5 4 4 4 3 3 2 2 1 1 1 1 1 1 1 1 1 1 0 0 0 0 0 0
11 10 10 11 8 8 8 8 8 10 7 7 7 7 7 6 6 6 5 5 4 4 4 3 3 2 2 2 1 1 1 1 1 1 1 1 1 1 1 1 0 1 1 0
12 10 14 8 7 7 8 8 7 7 7 6 6 6 5 5 5 5 5 5 4 3 3 3 2 2 1 1 1 1 1 1 1 1 1 1 1 1 1 1 1 1 1 1
12 12 10 9 8 8 9 9 7 7 6 6 7 6 6 5 4 4 4 4 3 3 2 2 2 2 2 2 1 2 2 2 1 1 1 1 2 2 1 1 1 1 1 1
11 13 14 8 7 5 6 10 6 6 6 7 7 8 6 5 4 4 3 3 3 2 2 2 2 2 2 2 2 2 2 2 1 1 1 2 2 2 1 1 1 1 1 1
11 11 10 7 6 5 11 9 5 5 6 7 7 6 6 4 4 3 3 3 2 2 3 3 3 2 2 2 2 1 1 1 1 2 2 1 1 1 1 2 2 2 4 3
11 12 13 6 6 9 6 5 5 5 5 6 6 5 5 4 4 4 4 3 3 3 3 3 2 2 3 2 1 1 1 2 3 4 3 2 2 2 2 2 3 6 6 7
10 9 6 5 6 5 4 5 5 5 5 5 5 5 5 5 4 4 3 3 3 3 3 2 2 2 2 2 1 1 1 3 4 6 7 5 2 2 2 4 6 7 8 9
9 8 7 6 5 4 4 5 4 4 4 4 5 5 5 4 4 4 3 3 3 3 3 3 2 2 1 1 0 1 2 3 4 5 8 10 9 5 5 6 6 7 8 9
9 8 7 6 5 5 5 4 4 4 4 4 4 4 4 4 4 4 4 4 4 4 3 3 2 2 1 1 1 1 2 2 4 4 6 9 11 12 8 9 7 7 7 8
9 7 6 6 5 4 5 5 4 4 5 4 4 4 4 4 3 4 4 4 4 4 4 4 3 2 1 1 1 1 3 4 3 4 5 5 7 9 13 13 13 13 13 10
7 5 5 5 4 4 5 4 4 4 4 4 3 3 3 3 3 4 3 3 4 4 4 3 3 3 1 1 1 1 2 3 2 4 4 6 6 7 9 11 14 15 15 14
5 5 6 5 6 4 4 4 4 3 3 3 3 3 3 3 3 3 3 3 4 4 4 4 4 4 2 1 1 1 2 5 4 4 5 4 5 7 8 10 11 12 14 14
5 4 5 4 4 4 3 4 4 4 4 4 3 3 3 3 3 3 2 3 3 2 3 4 5 5 4 2 2 2 1 2 3 4 5 6 7 7 7 9 9 11 12 13
5 4 4 5 5 4 4 4 5 5 4 4 3 3 3 3 2 2 2 1 2 3 2 2 2 2 1 1 1 2 3 5 5 5 5 5 7 7 7 7 8 7 7 7
6 6 5 5 5 5 5 4 4 4 4 4 3 3 3 2 3 2 2 1 2 2 1 1 1 0 1 1 2 2 3 3 4 4 4 5 5 6 5 4 3 3 3 4
3 4 4 4 4 4 4 4 4 3 4 3 3 3 3 3 3 3 2 2 2 2 1 1 0 0 0 0 1 1 1 1 1 1 2 2 3 2 2 2 2 2 2 3
4 4 4 3 3 4 4 4 3 3 3 3 3 3 2 2 2 2 2 2 2 3 2 1 4 1 0 -0 0 1 1 1 1 1 1 2 1 1 1 1 1 1 1 2
4 4 3 3 3 3 4 3 3 3 2 2 2 3 3 2 2 2 2 3 2 1 0 1 1 2 1 1 2 1 2 1 1 1 1 1 1 1 1 3 1 1 1 1
4 3 3 3 3 3 3 3 3 3 3 2 3 3 3 2 2 2 3 3 1 1 1 2 1 1 3 2 2 1 1 2 1 2 1 1 1 1 1 1 1 1 1 1
3 3 3 3 3 3 3 2 2 2 2 3 2 2 2 3 2 2 1 2 1 4 1 1 1 2 2 3 2 2 1 1 1 1 1 1 1 1 1 1 1 1 1 1
3 3 3 3 3 3 2 2 2 2 3 3 3 3 3 2 2 3 3 1 1 2 1 1 2 4 2 1 2 2 1 1 1 1 1 1 1 1 1 1 1 1 1 1
3 3 3 2 2 3 4 3 2 2 2 2 2 2 2 2 2 1 1 3 3 3 1 1 3 5 2 0 1 1 1 1 1 1 1 4 1 1 1 1 1 1 1 2
3 3 3 3 3 3 3 2 2 2 2 2 2 2 1 1 2 1 1 1 4 3 1 4 5 6 1 1 1 2 1 1 1 1 1 1 1 1 1 1 1 1 2 2
3 3 3 3 3 3 2 2 3 2 2 3 2 2 1 1 1 1 1 2 1 3 1 1 3 4 1 1 1 1 1 1 1 1 1 1 1 1 1 1 1 2 2 2
3 5 3 3 2 2 2 3 3 3 3 2 3 2 1 1 1 1 3 1 1 2 1 1 2 4 2 1 1 1 1 1 3 1 1 1 1 1 1 1 2 2 2 2